Regional Weather Roundup
Issued by NWS Goodland, KS

Home | Current Version | Previous Version | Graphics & Text | Print | Product List | Glossary On
Versions: 1 2 3 4 5 6 7 8 9 10 11 12 13 14 15 16 17 18 19 20 21 22 23 24 25 26 27 28 29 30 31 32 33 34 35 36 37 38 39 40 41 42 43 44 45 46 47 48 49 50
000
ASUS43 KGLD 290208
RWRGLD

GOODLAND FORECAST AREA HOURLY WEATHER ROUNDUP
NATIONAL WEATHER SERVICE GOODLAND KS
800 PM MDT SUN MAY 28 2017

...OFFICIAL OBSERVATIONS...

CITY           SKY/WX    TMP DP  RH WIND       PRES   REMARKS
GOODLAND KS    CLEAR     64  46  52 W6        30.09S
HILL CITY KS   CLEAR     69  55  60 SE3       30.02F
IMPERIAL NEB   MOCLDY    62  46  55 N17       30.09R
MCCOOK NEB     MOCLDY    72  44  36 NW3       30.03R
AKRON CO       CLOUDY    58  42  55 N21G30    30.18R
BURLINGTON CO  CLEAR     66  45  46 W5        30.13S
LIMON CO       CLEAR     62  39  42 CALM      30.20S
$$

...UNOFFICIAL OBSERVATIONS...

CITY           SKY/WX    TMP DP  RH WIND       PRES   REMARKS
LENORA KS        N/A     70  32  24 MISG        N/A
NORTON KS      CLEAR     68  45  42 CALM      30.01F
SHARON SPRINGS   N/A     64  43  45 CALM        N/A
TRENTON NEB      N/A     62  32  32 NW6         N/A
KIT CARSON CO    N/A     67  40  38 CALM        N/A
$$




USA.gov is the U.S. government's official web portal to all federal, state and local government web resources and services.